Terug naar catalogus

STARLINK-4475

ActiefCommunicatieVLEO
NORAD 53545·PAYLOAD·🇺🇸 United States

Gelanceerd Aug 19, 2022 vanaf Cape Canaveral Space Force Station

Loading…

Volgende Passages (komende 24 uur)

TLE

VersSource: CelesTrak SupGP

Epoch: Sep 15, 2026, 01:55 UTC

1 53545C 22101U   26258.08034722  .00010382  00000+0  30672-3 0  2589
2 53545  53.1588 279.0055 0001291  85.1141  43.6657 15.34387136    18

Volg STARLINK-4475 in realtime met AllMySat

Download on the App Store